#timestamp,LO_Frequency,Hit,StdDev 
1644696015.4,286046977.4,N
1644696035.2,286046985.8,N
1644696055.1,286046984.5,N
1644696056.0,286046984.5,N
1644696075.8,286046986.1,N
1644696095.6,286046989.6,N
1644696115.5,286046987.9,N
1644696135.3,286046983.8,N
1644696155.2,286046984.2,N
1644696175.9,286046985.7,N
1644696195.7,286046992.3,N
1644696215.6,286046997.0,N
1644696235.4,286046990.2,N
1644696255.2,286046990.7,N
1644696275.1,286046999.4,N
1644696276.0,286046999.4,N
1644696295.8,286046998.2,N
1644696315.7,286046999.5,N
1644696335.5,286046996.7,N
1644696355.3,286047002.4,N
1644696375.2,286047001.2,N
1644696395.0,286046995.8,N
1644696395.9,286046995.8,N
1644696415.7,286047005.4,N
1644696435.6,286047005.0,N
1644696455.4,286047009.9,N
1644696475.3,286047007.0,N
1644696495.1,286047013.6,N
1644696515.8,286047014.9,N
1644696535.7,286047012.7,N
1644696555.5,286047006.1,N
1644696575.4,286046994.0,N
1644696595.2,286046990.6,N
1644696615.0,286046994.4,N
1644696615.9,286046994.4,N
1644696635.8,286046989.8,N
1644696655.6,286046994.8,N
1644696675.4,286046993.5,N
1644696695.3,286046996.9,N
1644696715.1,286047006.7,N
1644696735.9,286047009.1,N
1644696755.7,286047007.7,N
1644696775.5,286047011.3,N
1644696795.4,286047015.8,N
1644696815.2,286047019.4,N
1644696835.0,286047014.8,N
1644696835.9,286047014.8,N
1644696855.8,286047013.6,N
1644696875.6,286047002.6,N
1644696895.5,286046993.5,N
1644696915.3,286046997.4,N
1644696935.1,286046998.8,N
1644696955.9,286047006.2,N
1644696975.7,286047011.2,N
1644696995.5,286047012.9,N
1644697015.4,286047014.0,N
1644697035.2,286047012.8,N
1644697055.1,286047009.9,N
1644697056.0,286047009.9,N
1644697075.8,286047005.2,N
1644697095.6,286047002.8,N
1644697115.5,286047004.4,N
1644697135.3,286047006.3,N
1644697155.2,286047007.3,N
1644697175.9,286047007.8,N
1644697195.7,286047016.7,N
1644697215.6,286047014.7,N
1644697235.4,286047014.3,N
1644697255.2,286047012.6,N
1644697275.1,286047012.2,N
1644697276.0,286047012.2,N
1644697295.8,286047007.8,N
1644697315.7,286047009.8,N
1644697335.5,286047011.4,N
1644697355.3,286047011.3,N
1644697375.2,286047008.2,N
1644697395.0,286047011.0,N
1644697395.9,286047011.0,N
1644697415.7,286047014.3,N
1644697435.6,286047009.7,N
1644697455.4,286047016.9,Y
1644697475.3,286047008.8,P
1644697495.1,286047002.9,P
1644697496.0,286047002.9,N
1644697515.8,286047011.9,Y
1644697535.7,286047007.2,P
1644697555.5,286047001.4,N
1644697575.4,286047004.3,N
1644697595.2,286047004.4,N
1644697615.0,286047003.4,N
1644697615.9,286047003.4,N
1644697635.8,286047001.4,N
1644697655.6,286046998.6,N
1644697675.4,286046993.9,N
1644697695.3,286046995.5,N
1644697715.1,286046994.9,N
1644697735.9,286046998.7,N
1644697755.7,286046999.0,N
1644697775.5,286046992.6,N
1644697795.4,286046994.6,N
1644697815.2,286046994.0,N
1644697835.0,286046997.7,N
1644697835.9,286046997.7,N
1644697855.8,286046997.6,N
1644697875.6,286046996.6,N
1644697895.5,286046998.5,N
1644697915.3,286046999.9,N
1644697935.1,286047005.5,N
1644697955.9,286047003.5,N
1644697975.7,286046997.9,N
1644697995.5,286046992.9,N
1644698015.4,286046999.4,N
1644698035.2,286047000.6,N
1644698055.1,286046995.9,N
1644698056.0,286046995.9,N
1644698075.8,286046998.0,N
1644698095.6,286046999.3,N
1644698115.5,286046999.5,N
1644698135.3,286046999.6,N
1644698155.1,286046998.2,N
1644698175.9,286046999.1,N
1644698195.7,286046998.7,N
1644698215.6,286047002.4,N
1644698235.4,286047002.5,N
1644698255.2,286047000.9,N
1644698275.1,286046995.2,N
1644698276.0,286046995.2,N
1644698295.8,286046999.2,N
1644698315.6,286046997.2,N
1644698335.5,286047000.6,N
1644698355.3,286046991.8,Y
1644698375.2,286046991.9,P
1644698395.9,286046992.9,N
1644698415.7,286046987.8,P
1644698435.6,286046992.0,N
1644698455.4,286046990.4,N
1644698475.2,286046989.1,Y
1644698495.1,286046993.5,P
1644698496.0,286046993.5,P
1644698515.8,286046997.6,P
1644698535.7,286046994.0,N
1644698555.5,286046995.0,N
1644698575.3,286046998.9,N
1644698595.2,286047000.3,N
1644698615.0,286047001.9,N
1644698615.9,286047001.9,N
1644698635.8,286047006.8,N
1644698655.6,286047010.2,N
1644698675.4,286047009.7,N
1644698695.3,286047007.9,N
1644698715.1,286047005.2,N
1644698735.8,286047001.5,N
1644698755.7,286046999.8,N
1644698775.5,286046999.0,N
1644698795.4,286046997.4,N
1644698815.2,286046994.2,N
1644698835.0,286046997.4,N
1644698835.9,286046997.4,N
1644698855.8,286046997.3,N
1644698875.6,286046998.9,N
1644698895.4,286047003.5,N
1644698915.3,286047004.0,N
1644698935.1,286046999.1,N
1644698955.9,286047001.2,N
1644698975.7,286046995.2,N
1644698995.5,286046989.4,N
1644699015.4,286046986.0,N
1644699035.2,286046987.4,N
1644699055.0,286046990.9,N
1644699055.9,286046990.9,N
1644699075.8,286046985.3,N
1644699095.6,286046981.2,N
1644699115.5,286046986.8,N
1644699135.3,286046978.9,N
1644699155.1,286046979.3,N
1644699175.9,286046986.8,N
1644699195.7,286046983.5,N
1644699215.5,286046973.3,Y
1644699235.4,286046977.9,P
1644699255.2,286046983.1,N
1644699275.1,286046992.9,N
1644699276.0,286046992.9,N
1644699295.8,286046993.9,N
1644699315.6,286046990.9,N
1644699335.5,286046985.4,N
1644699355.3,286046984.9,N
1644699375.2,286046978.7,Y
1644699395.9,286046987.3,P
1644699415.7,286046996.2,P
1644699435.6,286046995.6,N
1644699455.4,286047001.1,N
1644699475.2,286046999.2,N
1644699495.1,286047000.5,N
1644699496.0,286047000.5,N
1644699515.8,286047001.9,N
1644699535.7,286047004.7,N
1644699555.5,286047009.6,N
1644699575.3,286047015.7,N
1644699595.2,286047024.9,Y
